,,PA_Meas_PMT16A,,PR_Meas_QMR101_102,,RH_Meas_QMH101,,SR_Meas_QMS101,,TA_Meas_QMH101,,GenWind,,GenWind,
time,status,PA,status,PR,status,RH,status,SR,status,TA,status,DirAvg,status,SpdAvg,
2011-02-09, 00:00:04,VALID,914.796,VALID,0,VALID,94.5913,VALID,0,VALID,20.4423,VALID,128,VALID,0.885547,
2011-02-09, 00:01:04,VALID,914.791,VALID,0,VALID,94.6676,VALID,0,VALID,20.4228,VALID,128,VALID,0.608984,
2011-02-09, 00:02:04,VALID,914.807,VALID,0,VALID,94.7133,VALID,0,VALID,20.4033,VALID,128,VALID,0.394531,
2011-02-09, 00:03:04,VALID,914.755,VALID,0,VALID,94.7743,VALID,0.107441,VALID,20.4423,VALID,128,VALID,0.176953,
2011-02-09, 00:04:04,VALID,914.71,VALID,0,VALID,94.7667,VALID,0,VALID,20.4423,VALID,128,VALID,0.241016,
2011-02-09, 00:05:04,VALID,914.693,VALID,0,VALID,94.5761,VALID,0,VALID,20.4423,VALID,128,VALID,0.245703,
2011-02-09, 00:06:04,VALID,914.717,VALID,0,VALID,94.4846,VALID,0,VALID,20.4423,VALID,128,VALID,0.248828,
2011-02-09, 00:07:04,VALID,914.71,VALID,0,VALID,94.4313,VALID,0,VALID,20.4228,VALID,128,VALID,0.592578,
2011-02-09, 00:08:04,VALID,914.673,VALID,0,VALID,94.3855,VALID,0,VALID,20.4228,VALID,128,VALID,0.684375,
2011-02-09, 00:09:04,VALID,914.68,VALID,0,VALID,94.4084,VALID,0,VALID,20.4228,VALID,128,VALID,0.970312,
2011-02-09, 00:10:04,VALID,914.648,VALID,0,VALID,94.416,VALID,0,VALID,20.4033,VALID,128,VALID,0.819922,
2011-02-09, 00:11:04,VALID,914.619,VALID,0,VALID,94.3398,VALID,0.107441,VALID,20.3643,VALID,128,VALID,0.728125,
2011-02-09, 00:12:04,VALID,914.598,VALID,0,VALID,94.4617,VALID,0,VALID,20.3643,VALID,128,VALID,1.11641,
2011-02-09, 00:13:04,VALID,914.603,VALID,0,VALID,94.4922,VALID,0,VALID,20.3253,VALID,128,VALID,0.291797,
2011-02-09, 00:14:04,VALID,914.561,VALID,0,VALID,94.5837,VALID,0,VALID,20.3253,VALID,128,VALID,0.691406,
2011-02-09, 00:15:04,VALID,914.548,VALID,0,VALID,94.7286,VALID,0,VALID,20.3464,VALID,117,VALID,0.307422,
2011-02-09, 00:16:04,VALID,914.523,VALID,0,VALID,94.7819,VALID,0,VALID,20.3448,VALID,117,VALID,0.232031,
2011-02-09, 00:17:04,VALID,914.499,VALID,0,VALID,94.7209,VALID,0,VALID,20.3448,VALID,117,VALID,0.637109,
2011-02-09, 00:18:04,VALID,914.521,VALID,0,VALID,94.5532,VALID,0,VALID,20.3269,VALID,117,VALID,0.942578,
2011-02-09, 00:19:04,VALID,914.467,VALID,0,VALID,94.5913,VALID,0,VALID,20.3058,VALID,86,VALID,0.674609,
2011-02-09, 00:20:04,VALID,914.472,VALID,0,VALID,94.6371,VALID,0,VALID,20.3058,VALID,132,VALID,0.971875,
2011-02-09, 00:21:04,VALID,914.416,VALID,0,VALID,94.5456,VALID,0,VALID,20.3253,VALID,132,VALID,0.886328,
2011-02-09, 00:22:04,VALID,914.411,VALID,0,VALID,94.4389,VALID,0,VALID,20.3253,VALID,132,VALID,0.496484,
2011-02-09, 00:23:04,VALID,914.433,VALID,0,VALID,94.2483,VALID,0,VALID,20.3253,VALID,132,VALID,0.390625,
2011-02-09, 00:24:04,VALID,914.412,VALID,0,VALID,93.8214,VALID,0,VALID,20.3058,VALID,132,VALID,0.396484,
2011-02-09, 00:25:04,VALID,914.435,VALID,0,VALID,93.7756,VALID,0,VALID,20.2863,VALID,132,VALID,0.238672,
2011-02-09, 00:26:04,VALID,914.462,VALID,0,VALID,93.89,VALID,0,VALID,20.2863,VALID,132,VALID,0.639063,
2011-02-09, 00:27:04,VALID,914.444,VALID,0,VALID,94.0196,VALID,0,VALID,20.2863,VALID,132,VALID,0.690234,
2011-02-09, 00:28:04,VALID,914.464,VALID,0,VALID,94.1034,VALID,0,VALID,20.2863,VALID,132,VALID,0.764844,
2011-02-09, 00:29:04,VALID,914.488,VALID,0,VALID,94.2026,VALID,0,VALID,20.2863,VALID,132,VALID,0.655469,
2011-02-09, 00:30:04,VALID,914.495,VALID,0,VALID,94.3017,VALID,0,VALID,20.2668,VALID,132,VALID,0.355469,
2011-02-09, 00:31:04,VALID,914.502,VALID,0,VALID,94.4236,VALID,0,VALID,20.2684,VALID,132,VALID,0.524219,
2011-02-09, 00:32:04,VALID,914.486,VALID,0,VALID,94.599,VALID,0,VALID,20.2278,VALID,132,VALID,0.154297,
2011-02-09, 00:33:04,VALID,914.49,VALID,0,VALID,94.7972,VALID,0,VALID,20.2489,VALID,132,VALID,0,
2011-02-09, 00:34:04,VALID,914.494,VALID,0,VALID,94.881,VALID,0,VALID,20.2489,VALID,132,VALID,0,
2011-02-09, 00:35:04,VALID,914.469,VALID,0,VALID,94.8963,VALID,0,VALID,20.2489,VALID,132,VALID,0.220703,
2011-02-09, 00:36:04,VALID,914.46,VALID,0,VALID,94.82,VALID,0,VALID,20.2684,VALID,132,VALID,0.512109,
2011-02-09, 00:37:04,VALID,914.458,VALID,0,VALID,94.8124,VALID,0,VALID,20.2668,VALID,132,VALID,0.461719,
2011-02-09, 00:38:04,VALID,914.454,VALID,0,VALID,94.8505,VALID,0,VALID,20.2668,VALID,132,VALID,0.760156,
2011-02-09, 00:39:04,VALID,914.439,VALID,0,VALID,94.8734,VALID,0,VALID,20.2863,VALID,132,VALID,0.772266,
2011-02-09, 00:40:04,VALID,914.428,VALID,0,VALID,94.942,VALID,0,VALID,20.2863,VALID,132,VALID,0.553906,
2011-02-09, 00:41:04,VALID,914.436,VALID,0,VALID,95.003,VALID,0,VALID,20.3253,VALID,132,VALID,0.153906,
2011-02-09, 00:42:04,VALID,914.421,VALID,0,VALID,95.125,VALID,0,VALID,20.3448,VALID,132,VALID,0.197656,
2011-02-09, 00:43:04,VALID,914.423,VALID,0,VALID,95.1936,VALID,0,VALID,20.3838,VALID,132,VALID,0.117188,
2011-02-09, 00:44:04,VALID,914.404,VALID,0,VALID,95.2012,VALID,0,VALID,20.4033,VALID,132,VALID,0.452344,
2011-02-09, 00:45:04,VALID,914.409,VALID,0,VALID,95.1631,VALID,0,VALID,20.4049,VALID,132,VALID,0.473828,
2011-02-09, 00:46:04,VALID,914.398,VALID,0,VALID,95.125,VALID,0,VALID,20.3838,VALID,132,VALID,0.602734,
2011-02-09, 00:47:04,VALID,914.387,VALID,0,VALID,95.1402,VALID,0,VALID,20.4049,VALID,132,VALID,0.532031,
2011-02-09, 00:48:04,VALID,914.406,VALID,0,VALID,95.247,VALID,0,VALID,20.4033,VALID,132,VALID,0.454297,
2011-02-09, 00:49:04,VALID,914.401,VALID,0,VALID,95.3461,VALID,0,VALID,20.4439,VALID,132,VALID,0.191406,
2011-02-09, 00:50:04,VALID,914.411,VALID,0,VALID,95.3689,VALID,0,VALID,20.4423,VALID,132,VALID,0.223438,
2011-02-09, 00:51:04,VALID,914.417,VALID,0,VALID,95.3613,VALID,0,VALID,20.4829,VALID,132,VALID,0.658594,
2011-02-09, 00:52:04,VALID,914.419,VALID,0,VALID,95.4223,VALID,0,VALID,20.4813,VALID,132,VALID,0.370703,
2011-02-09, 00:53:04,VALID,914.436,VALID,0,VALID,95.4147,VALID,0,VALID,20.5219,VALID,132,VALID,0.360156,
2011-02-09, 00:54:04,VALID,914.399,VALID,0,VALID,95.3003,VALID,0,VALID,20.5219,VALID,132,VALID,0.403125,
2011-02-09, 00:55:04,VALID,914.408,VALID,0,VALID,95.3613,VALID,0,VALID,20.5414,VALID,132,VALID,0.178906,
2011-02-09, 00:56:04,VALID,914.408,VALID,0,VALID,95.2393,VALID,0,VALID,20.5204,VALID,132,VALID,0,
2011-02-09, 00:57:04,VALID,914.396,VALID,0,VALID,95.2775,VALID,0,VALID,20.5999,VALID,132,VALID,0.176953,
2011-02-09, 00:58:04,VALID,914.366,VALID,0,VALID,95.064,VALID,0,VALID,20.5789,VALID,132,VALID,0.266797,
2011-02-09, 00:59:04,VALID,914.371,VALID,0,VALID,94.9192,VALID,0,VALID,20.5984,VALID,132,VALID,0.287109,
2011-02-09, 01:00:04,VALID,914.381,VALID,0,VALID,94.7972,VALID,0,VALID,20.639,VALID,132,VALID,0.330078,
2011-02-09, 01:01:04,VALID,914.346,VALID,0,VALID,94.7591,VALID,0,VALID,20.6374,VALID,132,VALID,0.392578,
2011-02-09, 01:02:04,VALID,914.327,VALID,0,VALID,94.66,VALID,0,VALID,20.6764,VALID,132,VALID,0.359766,
2011-02-09, 01:03:04,VALID,914.306,VALID,0,VALID,94.5075,VALID,0,VALID,20.7365,VALID,132,VALID,0.216406,
2011-02-09, 01:04:04,VALID,914.286,VALID,0,VALID,94.233,VALID,0,VALID,20.7365,VALID,132,VALID,0.297656,
2011-02-09, 01:05:04,VALID,914.284,VALID,0,VALID,94.2102,VALID,0,VALID,20.7544,VALID,132,VALID,0.268359,
2011-02-09, 01:06:04,VALID,914.282,VALID,0,VALID,94.1187,VALID,0,VALID,20.795,VALID,132,VALID,0.0226563,
2011-02-09, 01:07:04,VALID,914.254,VALID,0,VALID,94.012,VALID,0,VALID,20.7934,VALID,132,VALID,0.000390625,
2011-02-09, 01:08:04,VALID,914.309,VALID,0,VALID,93.9586,VALID,0,VALID,20.834,VALID,132,VALID,0.133594,
2011-02-09, 01:09:04,VALID,914.313,VALID,0,VALID,93.8138,VALID,0,VALID,20.8535,VALID,132,VALID,0.276172,
2011-02-09, 01:10:04,VALID,914.282,VALID,0,VALID,93.5851,VALID,0,VALID,20.873,VALID,132,VALID,0,
2011-02-09, 01:11:04,VALID,914.32,VALID,0,VALID,93.4478,VALID,0,VALID,20.8925,VALID,132,VALID,0,
2011-02-09, 01:12:04,VALID,914.314,VALID,0,VALID,93.1963,VALID,0,VALID,20.8714,VALID,132,VALID,0.235547,
2011-02-09, 01:13:04,VALID,914.301,VALID,0,VALID,92.9676,VALID,0,VALID,20.8714,VALID,132,VALID,0.347656,
2011-02-09, 01:14:04,VALID,914.28,VALID,0,VALID,93.0819,VALID,0,VALID,20.834,VALID,132,VALID,0.377734,
2011-02-09, 01:15:04,VALID,914.257,VALID,0,VALID,93.3868,VALID,0,VALID,20.795,VALID,132,VALID,0.399609,
2011-02-09, 01:16:04,VALID,914.253,VALID,0,VALID,93.4936,VALID,0,VALID,20.7154,VALID,132,VALID,0.453125,
2011-02-09, 01:17:04,VALID,914.208,VALID,0,VALID,93.5774,VALID,0,VALID,20.6764,VALID,132,VALID,0.542969,
2011-02-09, 01:18:04,VALID,914.195,VALID,0,VALID,93.8061,VALID,0,VALID,20.6569,VALID,132,VALID,0.262109,
2011-02-09, 01:19:04,VALID,914.163,VALID,0,VALID,93.9662,VALID,0,VALID,20.6569,VALID,132,VALID,0.426562,
2011-02-09, 01:20:04,VALID,914.152,VALID,0,VALID,93.9967,VALID,0,VALID,20.639,VALID,132,VALID,0.578125,
2011-02-09, 01:21:04,VALID,914.121,VALID,0,VALID,94.073,VALID,0,VALID,20.5984,VALID,132,VALID,0.656641,
2011-02-09, 01:22:04,VALID,914.128,VALID,0,VALID,94.2864,VALID,0,VALID,20.5789,VALID,132,VALID,0.582812,
2011-02-09, 01:23:04,VALID,914.115,VALID,0,VALID,94.4313,VALID,0,VALID,20.5578,VALID,132,VALID,0.40625,
2011-02-09, 01:24:04,VALID,914.099,VALID,0,VALID,94.3169,VALID,0,VALID,20.5789,VALID,132,VALID,0.361328,
2011-02-09, 01:25:04,VALID,914.076,VALID,0,VALID,94.3321,VALID,0,VALID,20.5578,VALID,132,VALID,0.0253906,
2011-02-09, 01:26:04,VALID,914.095,VALID,0,VALID,94.3626,VALID,0,VALID,20.5578,VALID,132,VALID,0,
2011-02-09, 01:27:04,VALID,914.092,VALID,0,VALID,94.3474,VALID,0,VALID,20.5789,VALID,132,VALID,0,
2011-02-09, 01:28:04,VALID,914.094,VALID,0,VALID,94.3931,VALID,0,VALID,20.5789,VALID,132,VALID,0,
2011-02-09, 01:29:04,VALID,914.101,VALID,0,VALID,94.4694,VALID,0,VALID,20.621,VALID,132,VALID,0.0191406,
2011-02-09, 01:30:04,VALID,914.084,VALID,0,VALID,94.4922,VALID,0,VALID,20.5773,VALID,132,VALID,0.0230469,
2011-02-09, 01:31:04,VALID,914.086,VALID,0,VALID,94.4694,VALID,0,VALID,20.6374,VALID,132,VALID,0.176172,
2011-02-09, 01:32:04,VALID,914.118,VALID,0,VALID,94.3474,VALID,0,VALID,20.6569,VALID,132,VALID,0,
2011-02-09, 01:33:04,VALID,914.086,VALID,0,VALID,94.2254,VALID,0,VALID,20.6764,VALID,132,VALID,0,
2011-02-09, 01:34:04,VALID,914.118,VALID,0,VALID,94.1263,VALID,0,VALID,20.7154,VALID,132,VALID,0,
2011-02-09, 01:35:04,VALID,914.106,VALID,0,VALID,93.9815,VALID,0,VALID,20.7349,VALID,132,VALID,0,
2011-02-09, 01:36:04,VALID,914.104,VALID,0,VALID,93.7528,VALID,0,VALID,20.7544,VALID,132,VALID,0,
2011-02-09, 01:37:04,VALID,914.11,VALID,0,VALID,93.5088,VALID,0,VALID,20.7154,VALID,132,VALID,0.366016,
2011-02-09, 01:38:04,VALID,914.117,VALID,0,VALID,93.2268,VALID,0,VALID,20.7154,VALID,132,VALID,0.239453,
2011-02-09, 01:39:04,VALID,914.099,VALID,0,VALID,92.9676,VALID,0,VALID,20.6959,VALID,132,VALID,0.0507813,
2011-02-09, 01:40:04,VALID,914.092,VALID,0,VALID,92.7846,VALID,0,VALID,20.6959,VALID,132,VALID,0.0339844,
2011-02-09, 01:41:04,VALID,914.097,VALID,0,VALID,92.6245,VALID,0,VALID,20.6959,VALID,132,VALID,0,
2011-02-09, 01:42:04,VALID,914.101,VALID,0,VALID,92.6702,VALID,0,VALID,20.7154,VALID,132,VALID,0.176172,
2011-02-09, 01:43:04,VALID,914.103,VALID,0,VALID,92.5711,VALID,0,VALID,20.7154,VALID,132,VALID,0.203125,
2011-02-09, 01:44:04,VALID,914.08,VALID,0,VALID,92.594,VALID,0,VALID,20.6764,VALID,132,VALID,0.0078125,
2011-02-09, 01:45:04,VALID,914.091,VALID,0,VALID,92.4797,VALID,0,VALID,20.6569,VALID,132,VALID,0,
2011-02-09, 01:46:04,VALID,914.067,VALID,0,VALID,92.6779,VALID,0,VALID,20.6374,VALID,132,VALID,0.0617188,
2011-02-09, 01:47:04,VALID,914.065,VALID,0,VALID,92.7998,VALID,0,VALID,20.6374,VALID,132,VALID,0.00234375,
2011-02-09, 01:48:04,VALID,914.076,VALID,0,VALID,92.9981,VALID,0,VALID,20.6374,VALID,132,VALID,0,
2011-02-09, 01:49:04,VALID,914.062,VALID,0,VALID,92.9066,VALID,0,VALID,20.6374,VALID,132,VALID,0.0601562,
2011-02-09, 01:50:04,VALID,914.06,VALID,0,VALID,92.8303,VALID,0,VALID,20.678,VALID,132,VALID,0.177344,
2011-02-09, 01:51:04,VALID,914.031,VALID,0,VALID,92.594,VALID,0,VALID,20.6569,VALID,132,VALID,0,
2011-02-09, 01:52:04,VALID,914.045,VALID,0,VALID,92.4568,VALID,0,VALID,20.6374,VALID,132,VALID,0,
2011-02-09, 01:53:04,VALID,914.029,VALID,0,VALID,92.7465,VALID,0,VALID,20.6374,VALID,132,VALID,0.223828,
2011-02-09, 01:54:04,VALID,914.004,VALID,0,VALID,92.8685,VALID,0,VALID,20.6163,VALID,132,VALID,0.26875,
2011-02-09, 01:55:04,VALID,914.014,VALID,0,VALID,92.9371,VALID,0,VALID,20.6569,VALID,132,VALID,0.0441406,
2011-02-09, 01:56:04,VALID,913.978,VALID,0,VALID,92.3882,VALID,0,VALID,20.6569,VALID,132,VALID,0.194141,
2011-02-09, 01:57:04,VALID,913.96,VALID,0,VALID,92.5406,VALID,0,VALID,20.6553,VALID,132,VALID,0.246094,
2011-02-09, 01:58:04,VALID,913.967,VALID,0,VALID,92.5254,VALID,0,VALID,20.6569,VALID,132,VALID,0.1875,
2011-02-09, 01:59:04,VALID,913.938,VALID,0,VALID,92.6474,VALID,0,VALID,20.6569,VALID,132,VALID,0.609766,
2011-02-09, 02:00:04,VALID,913.94,VALID,0,VALID,92.716,VALID,0,VALID,20.6179,VALID,132,VALID,0.518359,
2011-02-09, 02:01:04,VALID,913.967,VALID,0,VALID,92.838,VALID,0,VALID,20.5789,VALID,132,VALID,0.284375,
2011-02-09, 02:02:04,VALID,913.953,VALID,0,VALID,92.9752,VALID,0,VALID,20.5578,VALID,132,VALID,0.0398437,
2011-02-09, 02:03:04,VALID,913.929,VALID,0,VALID,93.1505,VALID,0,VALID,20.5804,VALID,132,VALID,0,
2011-02-09, 02:04:04,VALID,913.923,VALID,0,VALID,93.2496,VALID,0,VALID,20.5804,VALID,132,VALID,0.0105469,
2011-02-09, 02:05:04,VALID,913.938,VALID,0,VALID,93.3259,VALID,0,VALID,20.5594,VALID,132,VALID,0.000390625,
2011-02-09, 02:06:04,VALID,913.916,VALID,0,VALID,93.4707,VALID,0,VALID,20.5399,VALID,132,VALID,0,
2011-02-09, 02:07:04,VALID,913.892,VALID,0,VALID,93.4783,VALID,0,VALID,20.5204,VALID,132,VALID,0.326172,
2011-02-09, 02:08:04,VALID,913.924,VALID,0,VALID,93.5164,VALID,0,VALID,20.5219,VALID,132,VALID,0.398438,
2011-02-09, 02:09:04,VALID,913.933,VALID,0,VALID,93.6918,VALID,0,VALID,20.5204,VALID,132,VALID,0.188281,
2011-02-09, 02:10:04,VALID,913.93,VALID,0,VALID,93.7909,VALID,0.107441,VALID,20.4993,VALID,132,VALID,0.222656,
2011-02-09, 02:11:04,VALID,913.929,VALID,0,VALID,93.829,VALID,0,VALID,20.5399,VALID,132,VALID,0.171094,
2011-02-09, 02:12:04,VALID,913.898,VALID,0,VALID,93.8747,VALID,0,VALID,20.5609,VALID,132,VALID,0,
2011-02-09, 02:13:04,VALID,913.864,VALID,0,VALID,93.8443,VALID,0,VALID,20.5594,VALID,132,VALID,0.0621094,
2011-02-09, 02:14:04,VALID,913.875,VALID,0,VALID,93.7223,VALID,0,VALID,20.5594,VALID,132,VALID,0.278125,
2011-02-09, 02:15:04,VALID,913.872,VALID,0,VALID,93.7985,VALID,0,VALID,20.5204,VALID,132,VALID,0.207422,
2011-02-09, 02:16:04,VALID,913.846,VALID,0,VALID,93.9052,VALID,0,VALID,20.5009,VALID,132,VALID,0.222266,
2011-02-09, 02:17:04,VALID,913.855,VALID,0,VALID,94.073,VALID,0,VALID,20.5009,VALID,132,VALID,0.275391,
2011-02-09, 02:18:04,VALID,913.863,VALID,0,VALID,94.1492,VALID,0,VALID,20.4813,VALID,132,VALID,0.239844,
2011-02-09, 02:19:04,VALID,913.871,VALID,0,VALID,94.2483,VALID,0,VALID,20.5024,VALID,132,VALID,0.295312,
2011-02-09, 02:20:04,VALID,913.834,VALID,0,VALID,94.3093,VALID,0,VALID,20.4618,VALID,132,VALID,0.0917969,
2011-02-09, 02:21:05,VALID,913.875,VALID,0,VALID,94.2788,VALID,0,VALID,20.4813,VALID,132,VALID,0.260156,
2011-02-09, 02:22:05,VALID,913.886,VALID,0,VALID,94.2254,VALID,0,VALID,20.4618,VALID,132,VALID,0.333594,
2011-02-09, 02:23:05,VALID,913.843,VALID,0,VALID,94.1873,VALID,0,VALID,20.4228,VALID,132,VALID,0.0734375,
2011-02-09, 02:24:05,VALID,913.851,VALID,0,VALID,94.233,VALID,0,VALID,20.4033,VALID,132,VALID,0.296875,
2011-02-09, 02:25:05,VALID,913.885,VALID,0,VALID,94.3703,VALID,0,VALID,20.4033,VALID,132,VALID,0.0648438,
2011-02-09, 02:26:05,VALID,913.85,VALID,0,VALID,94.4541,VALID,0,VALID,20.4228,VALID,132,VALID,0.00742187,
2011-02-09, 02:27:05,VALID,913.807,VALID,0,VALID,94.416,VALID,0,VALID,20.4228,VALID,132,VALID,0.106641,
2011-02-09, 02:28:05,VALID,913.813,VALID,0,VALID,94.3093,VALID,0,VALID,20.4228,VALID,132,VALID,0.0234375,
2011-02-09, 02:29:05,VALID,913.776,VALID,0,VALID,94.3398,VALID,0,VALID,20.4423,VALID,132,VALID,0.194531,
2011-02-09, 02:30:05,VALID,913.808,VALID,0,VALID,94.355,VALID,0,VALID,20.4618,VALID,132,VALID,0.422656,
2011-02-09, 02:31:05,VALID,913.809,VALID,0,VALID,94.2712,VALID,0,VALID,20.4813,VALID,132,VALID,0.200391,
2011-02-09, 02:32:05,VALID,913.8,VALID,0,VALID,94.1416,VALID,0,VALID,20.4813,VALID,132,VALID,0.327344,
2011-02-09, 02:33:05,VALID,913.802,VALID,0,VALID,93.9586,VALID,0,VALID,20.4813,VALID,132,VALID,0.0753906,
2011-02-09, 02:34:05,VALID,913.781,VALID,0,VALID,93.8976,VALID,0,VALID,20.4813,VALID,132,VALID,0.0195313,
2011-02-09, 02:35:05,VALID,913.789,VALID,0,VALID,93.8595,VALID,0,VALID,20.4813,VALID,132,VALID,0.262109,
2011-02-09, 02:36:05,VALID,913.784,VALID,0,VALID,93.7833,VALID,0,VALID,20.4813,VALID,132,VALID,0.321094,
2011-02-09, 02:37:05,VALID,913.766,VALID,0,VALID,93.7985,VALID,0,VALID,20.5219,VALID,132,VALID,0.105859,
2011-02-09, 02:38:05,VALID,913.762,VALID,0,VALID,93.6842,VALID,0,VALID,20.5009,VALID,132,VALID,0.424609,
2011-02-09, 02:39:05,VALID,913.765,VALID,0,VALID,93.6079,VALID,0,VALID,20.5009,VALID,132,VALID,0.459375,
2011-02-09, 02:40:05,VALID,913.763,VALID,0,VALID,93.4478,VALID,0,VALID,20.5009,VALID,132,VALID,0.494531,
2011-02-09, 02:41:05,VALID,913.783,VALID,0,VALID,93.4021,VALID,0,VALID,20.5204,VALID,132,VALID,0.359766,
2011-02-09, 02:42:05,VALID,913.775,VALID,0,VALID,93.4555,VALID,0,VALID,20.5414,VALID,132,VALID,0.0964844,
2011-02-09, 02:43:05,VALID,913.762,VALID,0,VALID,93.4173,VALID,0,VALID,20.5204,VALID,132,VALID,0.0429688,
2011-02-09, 02:44:05,VALID,913.777,VALID,0,VALID,93.2649,VALID,0,VALID,20.5188,VALID,132,VALID,0.316406,
2011-02-09, 02:45:05,VALID,913.798,VALID,0,VALID,93.1886,VALID,0,VALID,20.5399,VALID,132,VALID,0.329688,
2011-02-09, 02:46:05,VALID,913.752,VALID,0,VALID,92.9828,VALID,0,VALID,20.5414,VALID,132,VALID,0.262891,
2011-02-09, 02:47:05,VALID,913.806,VALID,0,VALID,92.8685,VALID,0,VALID,20.5204,VALID,132,VALID,0.0597656,
2011-02-09, 02:48:05,VALID,913.818,VALID,0,VALID,92.8989,VALID,0,VALID,20.5399,VALID,132,VALID,0.274219,
2011-02-09, 02:49:05,VALID,913.814,VALID,0,VALID,92.9294,VALID,0,VALID,20.5609,VALID,132,VALID,0.0414063,
2011-02-09, 02:50:05,VALID,913.818,VALID,0,VALID,92.6702,VALID,0,VALID,20.5399,VALID,132,VALID,0.0316406,
2011-02-09, 02:51:05,VALID,913.83,VALID,0,VALID,92.5406,VALID,0,VALID,20.5594,VALID,132,VALID,0.412109,
2011-02-09, 02:52:05,VALID,913.781,VALID,0,VALID,92.4568,VALID,0,VALID,20.5399,VALID,132,VALID,0.342969,
2011-02-09, 02:53:05,VALID,913.76,VALID,0,VALID,92.4797,VALID,0,VALID,20.5399,VALID,132,VALID,0.100391,
2011-02-09, 02:54:05,VALID,913.776,VALID,0,VALID,92.4873,VALID,0,VALID,20.5399,VALID,132,VALID,0,
2011-02-09, 02:55:05,VALID,913.745,VALID,0,VALID,92.4263,VALID,0,VALID,20.5804,VALID,132,VALID,0.336328,
2011-02-09, 02:56:05,VALID,913.758,VALID,0,VALID,92.411,VALID,0,VALID,20.5789,VALID,132,VALID,0.526563,
2011-02-09, 02:57:05,VALID,913.731,VALID,0,VALID,92.5711,VALID,0,VALID,20.5383,VALID,132,VALID,0.570703,
2011-02-09, 02:58:05,VALID,913.723,VALID,0,VALID,92.5178,VALID,0,VALID,20.5789,VALID,132,VALID,0.378906,
2011-02-09, 02:59:05,VALID,913.748,VALID,0,VALID,92.7236,VALID,0,VALID,20.5414,VALID,132,VALID,0.248828,
2011-02-09, 03:00:05,VALID,913.708,VALID,0,VALID,92.8837,VALID,0,VALID,20.5009,VALID,132,VALID,0.278906,
2011-02-09, 03:01:05,VALID,913.68,VALID,0,VALID,92.9447,VALID,0,VALID,20.4618,VALID,132,VALID,0.0796875,
2011-02-09, 03:02:05,VALID,913.692,VALID,0,VALID,93.1124,VALID,0,VALID,20.4228,VALID,132,VALID,0.164063,
2011-02-09, 03:03:05,VALID,913.694,VALID,0,VALID,93.1734,VALID,0,VALID,20.3838,VALID,132,VALID,0,
2011-02-09, 03:04:05,VALID,913.662,VALID,0,VALID,93.3716,VALID,0,VALID,20.3838,VALID,132,VALID,0,
2011-02-09, 03:05:05,VALID,913.643,VALID,0,VALID,93.3564,VALID,0,VALID,20.3643,VALID,132,VALID,0,
2011-02-09, 03:06:05,VALID,913.629,VALID,0,VALID,93.4783,VALID,0,VALID,20.3854,VALID,132,VALID,0,
2011-02-09, 03:07:05,VALID,913.65,VALID,0,VALID,93.6384,VALID,0,VALID,20.3643,VALID,132,VALID,0.0875,
2011-02-09, 03:08:05,VALID,913.647,VALID,0,VALID,93.646,VALID,0,VALID,20.3838,VALID,132,VALID,0,
2011-02-09, 03:09:05,VALID,913.652,VALID,0,VALID,93.5241,VALID,0,VALID,20.4228,VALID,132,VALID,0,
2011-02-09, 03:10:05,VALID,913.626,VALID,0,VALID,93.3792,VALID,0,VALID,20.4033,VALID,132,VALID,0,
2011-02-09, 03:11:05,VALID,913.654,VALID,0,VALID,93.3335,VALID,0,VALID,20.4423,VALID,132,VALID,0,
2011-02-09, 03:12:05,VALID,913.679,VALID,0,VALID,93.2115,VALID,0,VALID,20.4618,VALID,132,VALID,0,
2011-02-09, 03:13:05,VALID,913.696,VALID,0,VALID,92.9676,VALID,0,VALID,20.4829,VALID,132,VALID,0.322266,
2011-02-09, 03:14:05,VALID,913.7,VALID,0,VALID,92.8227,VALID,0,VALID,20.4813,VALID,132,VALID,0.108984,
2011-02-09, 03:15:05,VALID,913.716,VALID,0,VALID,92.8303,VALID,0,VALID,20.4813,VALID,132,VALID,0,
2011-02-09, 03:16:05,VALID,913.73,VALID,0,VALID,93.1124,VALID,0,VALID,20.5009,VALID,132,VALID,0,
2011-02-09, 03:17:05,VALID,913.758,VALID,0,VALID,93.2191,VALID,0,VALID,20.5009,VALID,132,VALID,0,
2011-02-09, 03:18:05,VALID,913.732,VALID,0,VALID,93.4021,VALID,0,VALID,20.4813,VALID,132,VALID,0.533594,
2011-02-09, 03:19:05,VALID,913.73,VALID,0,VALID,93.5851,VALID,0,VALID,20.5009,VALID,132,VALID,0.461328,
2011-02-09, 03:20:05,VALID,913.743,VALID,0,VALID,93.5088,VALID,0,VALID,20.5204,VALID,132,VALID,0.416016,
2011-02-09, 03:21:05,VALID,913.757,VALID,0,VALID,93.1581,VALID,0,VALID,20.5204,VALID,132,VALID,0.351953,
2011-02-09, 03:22:05,VALID,913.74,VALID,0,VALID,93.0743,VALID,0,VALID,20.5009,VALID,132,VALID,0.121094,
2011-02-09, 03:23:05,VALID,913.743,VALID,0,VALID,93.0972,VALID,0,VALID,20.5009,VALID,132,VALID,0,
2011-02-09, 03:24:05,VALID,913.732,VALID,0,VALID,93.1276,VALID,0,VALID,20.5204,VALID,132,VALID,0.00429688,
2011-02-09, 03:25:05,VALID,913.748,VALID,0,VALID,93.2115,VALID,0,VALID,20.5399,VALID,132,VALID,0.135547,
2011-02-09, 03:26:05,VALID,913.753,VALID,0,VALID,93.1353,VALID,0,VALID,20.5204,VALID,132,VALID,0.237891,
2011-02-09, 03:27:05,VALID,913.766,VALID,0,VALID,93.0819,VALID,0,VALID,20.5204,VALID,132,VALID,0.321875,
2011-02-09, 03:28:05,VALID,913.794,VALID,0,VALID,93.0743,VALID,0,VALID,20.5009,VALID,132,VALID,0.190234,
2011-02-09, 03:29:05,VALID,913.795,VALID,0,VALID,93.1581,VALID,0,VALID,20.5399,VALID,132,VALID,0,
2011-02-09, 03:30:05,VALID,913.799,VALID,0,VALID,93.181,VALID,0,VALID,20.5399,VALID,132,VALID,0.164844,
2011-02-09, 03:31:05,VALID,913.786,VALID,0,VALID,93.1734,VALID,0,VALID,20.5399,VALID,132,VALID,0,
2011-02-09, 03:32:05,VALID,913.824,VALID,0,VALID,93.1658,VALID,0,VALID,20.5594,VALID,132,VALID,0,
2011-02-09, 03:33:05,VALID,913.789,VALID,0,VALID,93.0895,VALID,0,VALID,20.5594,VALID,132,VALID,0.326953,
2011-02-09, 03:34:05,VALID,913.813,VALID,0,VALID,93.0438,VALID,0,VALID,20.5594,VALID,132,VALID,0.178516,
2011-02-09, 03:35:05,VALID,913.797,VALID,0,VALID,93.2344,VALID,0,VALID,20.5789,VALID,132,VALID,0.367969,
2011-02-09, 03:36:05,VALID,913.831,VALID,0,VALID,93.2801,VALID,0,VALID,20.5789,VALID,132,VALID,0.423438,
2011-02-09, 03:37:05,VALID,913.822,VALID,0,VALID,93.1886,VALID,0,VALID,20.5984,VALID,132,VALID,0.257813,
2011-02-09, 03:38:05,VALID,913.809,VALID,0,VALID,93.1963,VALID,0,VALID,20.5999,VALID,132,VALID,0.333203,
2011-02-09, 03:39:05,VALID,913.801,VALID,0,VALID,93.2954,VALID,0,VALID,20.5594,VALID,132,VALID,0.30625,
2011-02-09, 03:40:05,VALID,913.854,VALID,0,VALID,93.4021,VALID,0,VALID,20.5399,VALID,132,VALID,0.239844,
2011-02-09, 03:41:05,VALID,913.837,VALID,0,VALID,93.5164,VALID,0,VALID,20.5009,VALID,132,VALID,0.234375,
2011-02-09, 03:42:05,VALID,913.862,VALID,0,VALID,93.6765,VALID,0.107441,VALID,20.4813,VALID,132,VALID,0.146094,
2011-02-09, 03:43:05,VALID,913.858,VALID,0,VALID,93.8443,VALID,0.107441,VALID,20.4197,VALID,132,VALID,0,
2011-02-09, 03:44:05,VALID,913.885,VALID,0,VALID,93.9052,VALID,0.107441,VALID,20.4603,VALID,132,VALID,0,
2011-02-09, 03:45:05,VALID,913.87,VALID,0,VALID,93.8747,VALID,0,VALID,20.5009,VALID,132,VALID,0,
2011-02-09, 03:46:05,VALID,913.842,VALID,0,VALID,93.7985,VALID,0,VALID,20.5204,VALID,132,VALID,0,